timestamp,wind_dir_avg,wind_spd_avg,wind_spd_max_dir,wind_spd_gust,battery_voltage,lat,long
2024-03-28 00:04:00+00:00,223.0,7.32,237.0,9.63,12.25,47.59359,-54.27349
2024-03-28 00:14:00+00:00,239.0,8.56,243.0,11.17,12.17,47.59359,-54.27349
2024-03-28 00:24:00+00:00,244.0,8.8,245.0,10.56,12.17,47.59359,-54.27349
2024-03-28 00:34:00+00:00,229.0,6.22,243.0,10.06,12.17,47.59359,-54.27349
2024-03-28 00:44:00+00:00,215.0,6.22,214.0,6.98,12.17,47.59359,-54.27349
2024-03-28 00:54:00+00:00,217.0,6.23,225.0,7.38,12.17,47.59359,-54.27349
2024-03-28 01:04:00+00:00,216.0,6.37,224.0,7.52,12.17,47.59359,-54.27349
2024-03-28 01:14:01+00:00,226.0,5.34,228.0,6.33,12.17,47.59359,-54.27349
2024-03-28 01:24:01+00:00,227.0,4.91,223.0,5.77,12.17,47.59359,-54.27349
2024-03-28 01:34:01+00:00,234.0,7.33,240.0,11.12,12.17,47.59359,-54.27349
2024-03-28 01:44:01+00:00,215.0,7.07,226.0,8.64,12.17,47.59359,-54.27349
2024-03-28 01:54:01+00:00,226.0,8.64,234.0,11.11,12.17,47.59359,-54.27349
2024-03-28 02:04:01+00:00,227.0,9.65,236.0,11.73,12.17,47.59359,-54.27349
2024-03-28 02:14:00+00:00,223.0,8.82,232.0,11.4,12.17,47.59359,-54.27349
2024-03-28 02:24:00+00:00,217.0,6.88,233.0,9.39,12.17,47.59359,-54.27349
2024-03-28 02:34:00+00:00,222.0,7.03,244.0,10.68,12.17,47.59359,-54.27349
2024-03-28 02:44:00+00:00,218.0,7.5,236.0,11.23,12.17,47.59359,-54.27349
2024-03-28 02:54:00+00:00,223.0,7.91,233.0,11.64,12.17,47.59359,-54.27349
2024-03-28 03:04:00+00:00,210.0,8.25,229.0,10.17,12.17,47.59359,-54.27349
2024-03-28 03:14:00+00:00,223.0,8.94,231.0,11.49,12.09,47.59359,-54.27349
2024-03-28 03:24:00+00:00,218.0,8.73,228.0,12.2,12.09,47.59359,-54.27349
2024-03-28 03:34:00+00:00,236.0,8.83,239.0,11.08,12.09,47.59359,-54.27349
2024-03-28 03:44:00+00:00,239.0,8.74,242.0,10.79,12.09,47.59359,-54.27349
2024-03-28 03:54:00+00:00,240.0,10.63,240.0,11.67,12.09,47.59359,-54.27349
2024-03-28 04:04:00+00:00,238.0,10.46,240.0,12.18,12.09,47.59359,-54.27349
2024-03-28 04:14:00+00:00,225.0,10.84,228.0,12.95,12.09,47.59359,-54.27349
2024-03-28 04:24:00+00:00,217.0,7.4,239.0,10.2,12.09,47.59359,-54.27349
2024-03-28 04:34:00+00:00,218.0,5.9,224.0,6.81,12.09,47.59359,-54.27349
2024-03-28 04:44:00+00:00,215.0,7.55,231.0,10.71,12.09,47.59359,-54.27349
2024-03-28 04:54:00+00:00,217.0,8.99,234.0,11.56,12.09,47.59359,-54.27349
2024-03-28 05:04:00+00:00,213.0,10.66,216.0,13.12,12.09,47.59359,-54.27349
2024-03-28 05:14:00+00:00,213.0,10.55,221.0,13.18,12.09,47.59359,-54.27349
2024-03-28 05:24:00+00:00,222.0,11.92,221.0,13.47,12.09,47.59359,-54.27349
2024-03-28 05:34:00+00:00,226.0,10.11,231.0,12.12,12.09,47.59359,-54.27349
2024-03-28 05:44:00+00:00,220.0,10.15,227.0,12.3,12.09,47.59359,-54.27349
2024-03-28 05:54:00+00:00,221.0,11.35,226.0,13.25,12.09,47.59359,-54.27349
2024-03-28 06:04:00+00:00,221.0,11.92,216.0,13.69,12.09,47.59359,-54.27349
2024-03-28 06:14:00+00:00,215.0,12.04,218.0,13.54,12.09,47.59359,-54.27349
2024-03-28 06:24:00+00:00,220.0,11.74,224.0,13.23,12.09,47.59359,-54.27349
2024-03-28 06:34:00+00:00,213.0,10.08,213.0,13.27,12.09,47.59359,-54.27349
2024-03-28 06:44:00+00:00,219.0,10.28,226.0,12.06,12.09,47.59359,-54.27349
2024-03-28 06:54:00+00:00,214.0,8.38,227.0,11.31,12.09,47.59359,-54.27349
2024-03-28 07:04:00+00:00,222.0,9.87,226.0,11.72,12.09,47.59359,-54.27349
2024-03-28 07:14:01+00:00,218.0,9.32,230.0,11.74,12.01,47.59359,-54.27349
2024-03-28 07:24:01+00:00,215.0,9.58,226.0,11.74,12.01,47.59359,-54.27349
2024-03-28 07:34:01+00:00,210.0,10.28,217.0,12.84,12.01,47.59359,-54.27349
2024-03-28 07:44:01+00:00,212.0,9.05,226.0,11.28,12.01,47.59359,-54.27349
2024-03-28 07:54:01+00:00,215.0,9.18,228.0,11.72,12.01,47.59359,-54.27349
2024-03-28 08:04:01+00:00,217.0,10.16,225.0,11.87,12.01,47.59359,-54.27349
2024-03-28 08:14:00+00:00,216.0,8.89,226.0,11.56,12.01,47.59359,-54.27349
2024-03-28 08:24:00+00:00,223.0,9.15,230.0,11.81,12.01,47.59359,-54.27349
2024-03-28 08:34:00+00:00,222.0,8.51,236.0,11.3,12.01,47.59359,-54.27349
2024-03-28 08:44:00+00:00,235.0,9.3,239.0,11.36,12.01,47.59359,-54.27349
2024-03-28 08:54:00+00:00,234.0,9.95,238.0,11.72,12.01,47.59359,-54.27349
2024-03-28 09:04:00+00:00,223.0,7.49,234.0,10.94,12.01,47.59359,-54.27349
2024-03-28 09:14:00+00:00,218.0,7.94,229.0,12.0,11.93,47.59359,-54.27349
2024-03-28 09:24:00+00:00,218.0,8.55,229.0,11.63,11.93,47.59359,-54.27349
2024-03-28 09:34:00+00:00,215.0,7.23,235.0,10.49,11.93,47.59359,-54.27349
2024-03-28 09:44:00+00:00,223.0,5.94,227.0,8.95,11.93,47.59359,-54.27349
2024-03-28 09:54:00+00:00,214.0,6.02,216.0,7.21,11.93,47.59359,-54.27349
2024-03-28 10:04:00+00:00,213.0,6.73,227.0,8.52,11.93,47.59359,-54.27349
2024-03-28 10:14:00+00:00,218.0,8.01,229.0,11.68,11.93,47.59359,-54.27349
2024-03-28 10:24:00+00:00,221.0,8.06,232.0,11.33,11.93,47.59359,-54.27349
2024-03-28 10:34:00+00:00,217.0,7.66,228.0,9.92,11.93,47.59359,-54.27349
2024-03-28 10:44:00+00:00,234.0,9.99,239.0,11.69,11.93,47.59359,-54.27349
2024-03-28 10:54:00+00:00,229.0,9.24,235.0,11.86,11.93,47.59359,-54.27349
2024-03-28 11:04:00+00:00,224.0,9.15,232.0,11.47,11.93,47.59359,-54.27349
2024-03-28 11:14:00+00:00,225.0,9.5,231.0,11.83,12.25,47.59359,-54.27349
2024-03-28 11:24:00+00:00,223.0,8.26,231.0,11.02,12.25,47.59359,-54.27349
2024-03-28 11:34:00+00:00,221.0,9.99,227.0,12.54,12.25,47.59359,-54.27349
2024-03-28 11:44:00+00:00,211.0,7.66,223.0,9.35,12.25,47.59359,-54.27349
2024-03-28 11:54:00+00:00,226.0,9.09,233.0,11.5,12.25,47.59359,-54.27349
2024-03-28 12:04:00+00:00,224.0,9.1,237.0,12.08,12.25,47.59359,-54.27349
2024-03-28 12:14:00+00:00,225.0,10.49,229.0,12.39,13.21,47.59359,-54.27349
2024-03-28 12:24:00+00:00,227.0,9.65,234.0,11.61,13.21,47.59359,-54.27349
2024-03-28 12:34:00+00:00,216.0,8.44,234.0,11.48,13.21,47.59359,-54.27349
2024-03-28 12:44:00+00:00,220.0,8.95,229.0,11.34,13.21,47.59359,-54.27349
2024-03-28 12:54:00+00:00,226.0,9.25,229.0,11.28,13.21,47.59359,-54.27349
2024-03-28 13:04:00+00:00,228.0,10.8,221.0,12.11,13.21,47.59359,-54.27349
2024-03-28 13:14:00+00:00,236.0,10.57,238.0,11.67,13.68,47.59359,-54.27349
2024-03-28 13:24:00+00:00,237.0,11.03,239.0,11.95,13.68,47.59359,-54.27349
2024-03-28 13:34:00+00:00,231.0,11.37,232.0,12.24,13.68,47.59359,-54.27349
2024-03-28 13:44:00+00:00,224.0,8.33,230.0,10.84,13.68,47.59359,-54.27349
2024-03-28 13:54:00+00:00,224.0,8.5,231.0,11.2,13.68,47.59359,-54.27349
2024-03-28 14:04:00+00:00,226.0,6.43,240.0,9.17,13.68,47.59359,-54.27349
2024-03-28 14:14:01+00:00,220.0,6.9,233.0,9.28,13.6,47.59359,-54.27349
2024-03-28 14:24:01+00:00,215.0,7.63,222.0,9.28,13.6,47.59359,-54.27349
2024-03-28 14:34:01+00:00,211.0,6.65,212.0,7.48,13.6,47.59359,-54.27349
2024-03-28 14:44:01+00:00,208.0,7.41,207.0,8.3,13.6,47.59359,-54.27349
2024-03-28 14:54:01+00:00,211.0,6.89,210.0,7.51,13.6,47.59359,-54.27349
2024-03-28 15:04:01+00:00,213.0,6.85,212.0,7.91,13.6,47.59359,-54.27349
2024-03-28 15:14:00+00:00,212.0,6.51,215.0,7.14,13.6,47.59359,-54.27349
2024-03-28 15:24:00+00:00,207.0,7.01,207.0,7.87,13.6,47.59359,-54.27349
2024-03-28 15:34:00+00:00,204.0,7.78,205.0,8.46,13.6,47.59359,-54.27349
2024-03-28 15:44:00+00:00,211.0,6.64,209.0,7.41,13.6,47.59359,-54.27349
2024-03-28 15:54:00+00:00,219.0,8.33,230.0,10.73,13.6,47.59359,-54.27349
2024-03-28 16:04:00+00:00,209.0,7.85,227.0,10.28,13.6,47.59359,-54.27349
2024-03-28 16:14:01+00:00,209.0,8.22,226.0,10.0,13.53,47.59359,-54.27349
2024-03-28 16:24:01+00:00,208.0,7.52,204.0,8.99,13.53,47.59359,-54.27349
2024-03-28 16:34:01+00:00,204.0,7.58,199.0,9.6,13.53,47.59359,-54.27349
2024-03-28 16:44:01+00:00,210.0,7.56,208.0,8.51,13.53,47.59359,-54.27349
2024-03-28 16:54:01+00:00,195.0,6.22,205.0,7.63,13.53,47.59359,-54.27349
2024-03-28 17:04:01+00:00,201.0,7.23,206.0,7.93,13.53,47.59359,-54.27349
2024-03-28 17:14:00+00:00,315.0,0.01,167.0,0.0,13.53,47.59359,-54.27349
2024-03-28 17:24:00+00:00,168.0,4.88,168.0,5.07,13.53,47.59359,-54.27349
2024-03-28 17:34:00+00:00,169.0,6.02,170.0,6.02,13.53,47.59359,-54.27349
2024-03-28 17:44:00+00:00,169.0,5.61,169.0,5.61,13.53,47.59359,-54.27349
2024-03-28 17:54:00+00:00,207.0,7.4,209.0,7.96,13.53,47.59359,-54.27349
2024-03-28 18:04:00+00:00,209.0,6.53,210.0,7.1,13.53,47.59359,-54.27349
2024-03-28 18:14:00+00:00,214.0,6.31,214.0,6.77,13.53,47.59359,-54.27349
2024-03-28 18:24:00+00:00,212.0,6.8,211.0,7.59,13.53,47.59359,-54.27349
2024-03-28 18:34:00+00:00,214.0,5.69,215.0,6.19,13.53,47.59359,-54.27349
2024-03-28 18:44:00+00:00,211.0,6.68,212.0,7.27,13.53,47.59359,-54.27349
2024-03-28 18:54:00+00:00,216.0,7.39,239.0,10.56,13.53,47.59359,-54.27349
2024-03-28 19:04:00+00:00,213.0,6.87,213.0,7.93,13.53,47.59359,-54.27349
2024-03-28 19:14:00+00:00,212.0,6.86,211.0,7.65,13.29,47.59359,-54.27349
2024-03-28 19:24:00+00:00,206.0,5.51,208.0,6.49,13.29,47.59359,-54.27349
2024-03-28 19:34:00+00:00,217.0,5.35,213.0,6.03,13.29,47.59359,-54.27349
2024-03-28 19:44:00+00:00,199.0,5.92,206.0,7.02,13.29,47.59359,-54.27349
2024-03-28 19:54:00+00:00,193.0,6.72,203.0,7.71,13.29,47.59359,-54.27349
2024-03-28 20:04:00+00:00,172.0,7.3,199.0,7.92,13.29,47.59359,-54.27349
2024-03-28 20:14:01+00:00,203.0,7.87,206.0,8.45,13.21,47.59359,-54.27349
2024-03-28 20:24:01+00:00,210.0,6.92,212.0,7.9,13.21,47.59359,-54.27349
2024-03-28 20:34:01+00:00,211.0,7.13,214.0,8.1,13.21,47.59359,-54.27349
2024-03-28 20:44:01+00:00,206.0,6.37,212.0,7.1,13.21,47.59359,-54.27349
2024-03-28 20:54:01+00:00,211.0,6.63,205.0,8.35,13.21,47.59359,-54.27349
2024-03-28 21:04:01+00:00,216.0,6.56,217.0,7.67,13.21,47.59359,-54.27349
2024-03-28 21:14:00+00:00,191.0,5.32,211.0,6.61,12.97,47.59359,-54.27349
2024-03-28 21:24:00+00:00,199.0,6.74,208.0,7.49,12.97,47.59359,-54.27349
2024-03-28 21:34:00+00:00,185.0,5.75,205.0,6.57,12.97,47.59359,-54.27349
2024-03-28 21:44:00+00:00,188.0,6.26,207.0,7.13,12.97,47.59359,-54.27349
2024-03-28 21:54:00+00:00,166.0,6.69,168.0,7.18,12.97,47.59359,-54.27349
2024-03-28 22:04:00+00:00,204.0,7.36,206.0,8.18,12.97,47.59359,-54.27349
2024-03-28 22:14:00+00:00,207.0,8.08,207.0,8.81,12.41,47.59359,-54.27349
2024-03-28 22:24:00+00:00,210.0,8.3,216.0,8.95,12.41,47.59359,-54.27349
2024-03-28 22:34:00+00:00,207.0,6.91,207.0,7.86,12.41,47.59359,-54.27349
2024-03-28 22:44:00+00:00,201.0,6.26,205.0,7.03,12.41,47.59359,-54.27349
2024-03-28 22:54:00+00:00,203.0,7.15,208.0,8.02,12.41,47.59359,-54.27349
2024-03-28 23:04:00+00:00,206.0,7.9,208.0,8.64,12.41,47.59359,-54.27349
2024-03-28 23:14:00+00:00,209.0,7.64,210.0,8.43,12.25,47.59359,-54.27349
2024-03-28 23:24:00+00:00,215.0,7.08,213.0,7.89,12.25,47.59359,-54.27349
2024-03-28 23:34:00+00:00,216.0,6.74,216.0,7.97,12.25,47.59359,-54.27349
2024-03-28 23:44:00+00:00,209.0,7.08,206.0,8.46,12.25,47.59359,-54.27349
2024-03-28 23:54:00+00:00,211.0,6.51,208.0,7.32,12.25,47.59359,-54.27349
